When you browse on this site, cookies collect data to enhance your experience and personalize the content and advertising you see.
Visit our Privacy Policy to learn more. By continuing to use the site, you agree to this use of cookies and data.
EN

Hourly Weather Lavrovo

Today, 9 August, Sunday

Time Temperature Precipitation Wind Pressure Humidity
00:00 +19°C° 0 mm 1 mps 744 mmHg 83%
01:00 +19°C° 0 mm 1 mps 743 mmHg 84%
02:00 +18°C° 0 mm 1 mps 743 mmHg 84%
03:00 +18°C° 0 mm 1 mps 743 mmHg 85%
04:00 +18°C° 0 mm 1 mps 743 mmHg 84%
05:00 +18°C° 0 mm 1 mps 743 mmHg 83%
06:00 +18°C° 0 mm 1 mps 743 mmHg 84%
07:00 +19°C° 0 mm 2 mps 743 mmHg 76%
08:00 +21°C° 0 mm 2 mps 743 mmHg 69%
09:00 +25°C° 0 mm 2 mps 743 mmHg 61%
10:00 +26°C° 0 mm 3 mps 743 mmHg 55%
11:00 +28°C° 0 mm 3 mps 743 mmHg 49%
12:00 +29°C° 0 mm 3 mps 743 mmHg 43%
13:00 +29°C° 0 mm 3 mps 742 mmHg 44%
14:00 +29°C° 0 mm 3 mps 742 mmHg 45%
15:00 +29°C° 0 mm 3 mps 742 mmHg 46%
16:00 +29°C° 0 mm 3 mps 742 mmHg 50%
17:00 +28°C° 0 mm 3 mps 742 mmHg 53%
18:00 +27°C° 0 mm 2 mps 742 mmHg 57%
19:00 +25°C° 0 mm 2 mps 742 mmHg 62%
20:00 +23°C° 0 mm 2 mps 741 mmHg 67%
21:00 +20°C° 0 mm 2 mps 741 mmHg 72%
22:00 +19°C° 0 mm 2 mps 741 mmHg 75%
23:00 +19°C° 0 mm 2 mps 741 mmHg 77%

Tomorrow, 10 August, Monday

Time Temperature Precipitation Wind Pressure Humidity
00:00 +18°C° 0 mm 2 mps 741 mmHg 79%
01:00 +18°C° 0 mm 2 mps 741 mmHg 80%
02:00 +17°C° 0 mm 2 mps 741 mmHg 82%
03:00 +17°C° 0 mm 2 mps 740 mmHg 83%
04:00 +17°C° 0 mm 2 mps 740 mmHg 82%
05:00 +17°C° 0 mm 2 mps 741 mmHg 82%
06:00 +17°C° 0 mm 2 mps 741 mmHg 81%
07:00 +19°C° 0 mm 3 mps 741 mmHg 73%
08:00 +22°C° 0 mm 3 mps 740 mmHg 65%
09:00 +25°C° 0 mm 3 mps 740 mmHg 57%
10:00 +26°C° 0 mm 3 mps 740 mmHg 51%
11:00 +28°C° 0 mm 4 mps 740 mmHg 45%
12:00 +29°C° 0 mm 4 mps 740 mmHg 39%
13:00 +29°C° 0 mm 4 mps 740 mmHg 40%
14:00 +29°C° 0 mm 4 mps 740 mmHg 40%
15:00 +30°C° 0 mm 4 mps 739 mmHg 40%
16:00 +29°C° 0 mm 3 mps 739 mmHg 46%
17:00 +28°C° 0 mm 3 mps 739 mmHg 51%
18:00 +27°C° 0 mm 2 mps 740 mmHg 56%
19:00 +25°C° 0 mm 2 mps 739 mmHg 61%
20:00 +23°C° 0 mm 2 mps 739 mmHg 67%
21:00 +20°C° 0 mm 2 mps 739 mmHg 72%
22:00 +19°C° 0 mm 2 mps 739 mmHg 74%
23:00 +19°C° 0 mm 2 mps 738 mmHg 75%

Day after tomorrow, 11 August, Tuesday

Time Temperature Precipitation Wind Pressure Humidity
00:00 +18°C° 0 mm 2 mps 738 mmHg 77%
01:00 +17°C° 0 mm 2 mps 738 mmHg 79%
02:00 +17°C° 0 mm 2 mps 738 mmHg 81%
03:00 +16°C° 0 mm 2 mps 738 mmHg 82%
04:00 +16°C° 0 mm 2 mps 738 mmHg 83%
05:00 +16°C° 0 mm 2 mps 738 mmHg 84%
06:00 +16°C° 0 mm 2 mps 738 mmHg 85%
07:00 +19°C° 0 mm 2 mps 738 mmHg 78%
08:00 +21°C° 0 mm 2 mps 738 mmHg 71%
09:00 +24°C° 0 mm 2 mps 738 mmHg 64%
10:00 +26°C° 0 mm 2 mps 738 mmHg 59%
11:00 +27°C° 0 mm 2 mps 738 mmHg 53%
12:00 +29°C° 0 mm 2 mps 738 mmHg 48%
13:00 +30°C° 0 mm 2 mps 738 mmHg 47%
14:00 +30°C° 0 mm 2 mps 738 mmHg 46%
15:00 +31°C° 0 mm 2 mps 737 mmHg 44%
16:00 +30°C° 0 mm 2 mps 737 mmHg 50%
17:00 +29°C° 0 mm 2 mps 737 mmHg 55%
18:00 +29°C° 0 mm 1 mps 737 mmHg 60%
19:00 +26°C° 0 mm 2 mps 737 mmHg 66%
20:00 +24°C° 0 mm 2 mps 737 mmHg 72%
21:00 +21°C° 0 mm 2 mps 737 mmHg 79%
22:00 +20°C° 0.2 mm 2 mps 737 mmHg 83%
23:00 +19°C° 0.2 mm 2 mps 736 mmHg 88%

12 August, Wednesday

Time Temperature Precipitation Wind Pressure Humidity
00:00 +19°C° 0.2 mm 2 mps 736 mmHg 93%
01:00 +18°C° 0.1 mm 2 mps 736 mmHg 93%
02:00 +18°C° 0.1 mm 2 mps 736 mmHg 93%
03:00 +17°C° 0.1 mm 2 mps 735 mmHg 94%
04:00 +17°C° 0.3 mm 2 mps 735 mmHg 94%
05:00 +17°C° 0.3 mm 2 mps 735 mmHg 94%
06:00 +17°C° 0.3 mm 2 mps 735 mmHg 94%
07:00 +19°C° 0.3 mm 2 mps 735 mmHg 89%
08:00 +21°C° 0.3 mm 2 mps 735 mmHg 84%
09:00 +23°C° 0.3 mm 2 mps 735 mmHg 79%
10:00 +25°C° 0 mm 3 mps 735 mmHg 71%
11:00 +27°C° 0 mm 3 mps 735 mmHg 63%
12:00 +28°C° 0 mm 3 mps 735 mmHg 55%
13:00 +28°C° 0 mm 3 mps 735 mmHg 56%
14:00 +29°C° 0 mm 3 mps 735 mmHg 56%
15:00 +29°C° 0 mm 3 mps 735 mmHg 56%
16:00 +27°C° 0.4 mm 3 mps 735 mmHg 63%
17:00 +26°C° 0.4 mm 3 mps 735 mmHg 70%
18:00 +25°C° 0.4 mm 4 mps 735 mmHg 76%
19:00 +22°C° 0 mm 3 mps 735 mmHg 80%
20:00 +20°C° 0 mm 3 mps 735 mmHg 84%
21:00 +19°C° 0 mm 2 mps 736 mmHg 89%
22:00 +18°C° 0 mm 2 mps 736 mmHg 89%
23:00 +17°C° 0 mm 2 mps 736 mmHg 89%

13 August, Thursday

Time Temperature Precipitation Wind Pressure Humidity
00:00 +17°C° 0 mm 2 mps 736 mmHg 90%
01:00 +16°C° 0 mm 2 mps 736 mmHg 90%
02:00 +16°C° 0 mm 2 mps 736 mmHg 90%
03:00 +16°C° 0 mm 1 mps 736 mmHg 90%
04:00 +16°C° 0 mm 2 mps 736 mmHg 88%
05:00 +16°C° 0 mm 2 mps 736 mmHg 87%
06:00 +16°C° 0 mm 2 mps 736 mmHg 86%
07:00 +18°C° 0 mm 2 mps 736 mmHg 77%
08:00 +20°C° 0 mm 2 mps 737 mmHg 69%
09:00 +23°C° 0 mm 2 mps 737 mmHg 60%
10:00 +25°C° 0 mm 2 mps 737 mmHg 55%
11:00 +26°C° 0 mm 2 mps 737 mmHg 50%
12:00 +28°C° 0 mm 3 mps 737 mmHg 44%
13:00 +28°C° 0 mm 3 mps 737 mmHg 45%
14:00 +28°C° 0 mm 3 mps 737 mmHg 45%
15:00 +28°C° 0 mm 4 mps 737 mmHg 45%
16:00 +27°C° 0 mm 3 mps 737 mmHg 51%
17:00 +26°C° 0 mm 3 mps 737 mmHg 57%
18:00 +25°C° 0 mm 2 mps 737 mmHg 63%
19:00 +23°C° 0 mm 2 mps 738 mmHg 70%
20:00 +20°C° 0 mm 2 mps 738 mmHg 77%
21:00 +18°C° 0 mm 2 mps 738 mmHg 85%
22:00 +18°C° 0 mm 2 mps 738 mmHg 87%
23:00 +17°C° 0 mm 2 mps 738 mmHg 89%

14 August, Friday

Time Temperature Precipitation Wind Pressure Humidity
00:00 +16°C° 0 mm 2 mps 738 mmHg 91%
01:00 +16°C° 0 mm 2 mps 738 mmHg 93%
02:00 +15°C° 0 mm 2 mps 738 mmHg 94%
03:00 +15°C° 0 mm 2 mps 738 mmHg 95%
04:00 +15°C° 0 mm 2 mps 738 mmHg 94%
05:00 +15°C° 0 mm 2 mps 738 mmHg 94%
06:00 +15°C° 0 mm 2 mps 739 mmHg 94%
07:00 +17°C° 0.2 mm 2 mps 739 mmHg 90%
08:00 +18°C° 0.2 mm 2 mps 739 mmHg 86%
09:00 +20°C° 0.2 mm 2 mps 739 mmHg 82%
10:00 +21°C° 0.1 mm 2 mps 739 mmHg 76%
11:00 +22°C° 0.1 mm 3 mps 739 mmHg 69%
12:00 +24°C° 0.1 mm 3 mps 739 mmHg 63%
13:00 +24°C° 0.7 mm 3 mps 739 mmHg 68%
14:00 +24°C° 0.7 mm 3 mps 739 mmHg 73%
15:00 +24°C° 0.7 mm 3 mps 739 mmHg 78%
16:00 +23°C° 1 mm 2 mps 739 mmHg 82%
17:00 +21°C° 1 mm 2 mps 739 mmHg 86%
18:00 +21°C° 1 mm 2 mps 739 mmHg 90%
19:00 +20°C° 0.1 mm 2 mps 739 mmHg 92%
20:00 +19°C° 0.1 mm 2 mps 739 mmHg 94%
21:00 +17°C° 0.1 mm 2 mps 739 mmHg 96%
22:00 +18°C° 0 mm 1 mps 738 mmHg 97%
23:00 +16°C° 0 mm 1 mps 738 mmHg 97%
Show more